Regional Weather Roundup
Issued by NWS

Home | Current Version | Previous Version | Text Only | Print | Product List | Glossary Off
Versions: 1 2 3 4 5 6 7 8 9 10 11 12 13 14 15 16 17 18 19 20 21 22 23 24 25 26 27 28 29 30 31 32 33 34 35 36 37 38 39 40 41 42 43 44 45 46 47 48 49 50

000
ASUS43 KLMK 241110
RWRKY
KENTUCKY REGIONAL WEATHER ROUNDUP
NATIONAL WEATHER SERVICE LOUISVILLE KY
700 AM EDT SUN MAY 24 2015

NOTE "FAIR" INDICATES FEW OR NO CLOUDS BELOW 12,000 FEET
WITH NO SIGNIFICANT WEATHER AND/OR OBSTRUCTIONS TO VISIBILITY.

KYZ001>023-026-027-061>063-070>075-241200-
WESTERN AND SOUTH CENTRAL KENTUCKY

CITY           SKY/WX    TMP DP  RH WIND       PRES   REMARKS
PADUCAH        CLOUDY    65  57  75 SE8       30.14S
HENDERSON      CLOUDY    64  54  68 SE9       30.19R
OWENSBORO      PTCLDY    64  56  75 SE8       30.22R
HOPKINSVILLE   CLEAR     64  55  71 SE8       30.21R
BOWLING GREEN  PTCLDY    59  52  77 CALM      30.25R
GLASGOW        CLEAR     64  49  59 CALM      30.26R
$$

KYZ024-025-028>034-038-045-046-053-241200-
NORTH CENTRAL KENTUCKY

CITY           SKY/WX    TMP DP  RH WIND       PRES   REMARKS
LOUISVILLE/SDF CLOUDY    62  54  74 SE6       30.25R
LOUISVILLE/LOU MOCLDY    62  53  72 CALM      30.26R
FORT KNOX      PTCLDY    62  53  71 S8        30.24R
$$

KYZ035>037-039>044-047>052-055>060-089>105-241200-
NORTHEAST KENTUCKY

CITY           SKY/WX    TMP DP  RH WIND       PRES   REMARKS
LEXINGTON      PTCLDY    60  50  69 S6        30.29R
COVINGTON      PTCLDY    60  49  66 S7        30.28R
FRANKFORT      PTCLDY    56  50  80 CALM      30.27R
$$

KYZ054-064>069-076>088-106>120-241200-
SOUTHEAST KENTUCKY

CITY           SKY/WX    TMP DP  RH WIND       PRES   REMARKS
JACKSON        PTCLDY    58  50  75 CALM      30.33R
LONDON         PTCLDY    55  49  80 CALM      30.33R
SOMERSET       PTCLDY    52  52 100 CALM      30.32S
MIDDLESBORO    PTCLDY    51  51  99 CALM      30.38R
MONTICELLO     MOSUNNY   56  53  89 SW6       30.33F
$$



USA.gov is the U.S. government's official web portal to all federal, state and local government web resources and services.